Location: La Bouteille
(49.8600°N, 3.9752°E)
Time: 14:33:17
(UTC+00:00)

Daily predictions for brighter satellites

Satellite Brightness Start Highest point End
(mag) Time Altitude Azimuth Time Altitude Azimuth Time Altitude Azimuth
CZ-4C R/B 3.4 20:29:48 10° NNE 20:33:58 84° ESE 20:38:05 10° SSW
Cosmos 1980 Rocket 4.2 20:29:47 10° NW 20:34:16 25° WSW 20:38:44 10° SSW
Cosmos 2322 Rocket 2.4 20:31:07 10° NNW 20:36:47 68° ENE 20:42:27 10° SE
ATLAS 2AS CENTAUR R/B 2.9 20:29:55 10° NW 20:36:48 66° NE 20:43:25 10° SE
Meteor 1-22 Rocket 4.3 20:32:02 10° N 20:37:41 76° ENE 20:43:33 10° SSE
BREEZE-M DEB (TANK) 3.6 20:36:42 10° SW 20:40:16 52° SE 20:51:56 10° ENE
Meteor 2-10 Rocket 3.8 20:36:10 10° N 20:41:45 63° ENE 20:47:04 10° SSE
COSMOS 2406 4.0 20:36:12 10° SW 20:41:52 59° NW 20:47:34 10° NNE
Cosmos 1674 4.3 20:40:07 10° SW 20:43:17 33° WNW 20:46:29 10° N
ARGOS Delta rocket 4.0 20:39:42 10° S 20:44:07 65° W 20:48:29 10° NNW
Cosmos 1733 Rocket 3.6 20:44:21 10° N 20:48:36 45° ENE 20:52:51 10° SSE
SL-4 R/B 2.3 20:45:11 10° W 20:48:59 67° N 20:53:02 10° E
Cosmos 2278 4.3 20:43:52 10° NW 20:49:27 55° WSW 20:54:59 10° S
Cosmos 1300 2.7 20:50:17 10° N 20:53:48 56° ENE 20:57:18 10° SSE
S3M 4.1 20:47:39 10° N 20:54:04 87° W 21:00:23 10° S
Ariane Rocket 3.0 20:49:31 10° SSE 20:54:35 79° ENE 20:59:43 10° NNW
USA 281 4.4 20:49:03 10° ESE 20:54:48 34° NE 21:00:34 10° NNW
Timation 1 Rocket 4.4 20:50:44 10° SSW 20:56:35 64° ESE 21:02:30 10° NE
SL-27 R/B 2.9 20:54:40 10° SSE 20:57:05 27° ESE 20:59:32 10° NE
Okean-O 4.3 20:53:52 10° SSW 20:57:46 31° W 21:01:42 10° NNW
Cosmos 1441 Rocket 4.5 20:55:20 10° NNW 20:58:39 35° W 21:01:59 10° SSW
Cosmos 1400 Rocket 2.7 20:56:59 10° S 21:00:52 86° ESE 21:04:43 10° NNE
Cosmos 2219 Rocket 2.8 20:55:52 10° NNW 21:01:21 47° NE 21:06:50 10° SE
COSMOS 2428 4.2 20:57:53 10° NNW 21:02:49 29° NE 21:07:43 10° ESE
BREEZE-M DEB (TANK) 2.1 21:02:09 10° W 21:04:09 46° SSW 21:06:53 10° ESE
Cosmos 1356 Rocket 3.7 21:00:14 10° S 21:04:18 52° E 21:08:25 10° NNE
Cosmos 2266 Rocket 4.1 20:59:40 10° S 21:06:01 86° W 21:12:29 10° N
USA 245 3.9 21:02:53 10° S 21:06:25 56° W 21:10:54 10° NNW
ATLAS CENTAUR R/B 1.2 21:03:36 10° SSW 21:06:56 45° ESE 21:10:24 10° NE
Cosmos 1850 Rocket 4.0 21:03:49 10° S 21:08:59 65° ESE 21:14:08 10° NNE
Cosmos 1655 Rocket 4.1 21:05:14 10° S 21:11:37 76° E 21:18:01 10° NNE
Meteor 1-4 Rocket 3.3 21:13:07 15° SE 21:14:59 26° E 21:17:34 10° NE
Cosmos 2228 Rocket 3.1 21:10:47 10° S 21:15:19 74° E 21:19:54 10° NNE
MOS 1 Rocket 3.8 21:10:51 10° S 21:16:14 73° WSW 21:21:31 10° NNW
Okean O Rocket 4.4 21:15:33 10° WSW 21:17:14 12° W 21:18:56 10° WNW
Cosmos 1953 3.3 21:14:36 10° N 21:18:03 31° ENE 21:20:51 14° SE
Cosmos 1315 Rocket 3.9 21:17:28 14° SSE 21:20:15 29° E 21:23:44 10° NNE
Cosmos 968 Rocket 3.6 21:17:24 10° S 21:22:26 59° ESE 21:27:34 10° NNE
SPOT 3 Rocket 3.8 21:18:28 10° S 21:23:35 67° WSW 21:28:45 10° NNW
Spot 1 4.4 21:19:08 10° NNE 21:23:37 57° ESE 21:28:19 10° S
SeaSat 1 3.3 21:19:17 10° S 21:23:54 41° WSW 21:28:34 10° NW
Cosmos 2360 Rocket 2.4 21:20:52 10° NNW 21:26:32 71° WSW 21:31:30 14° SSE
Cosmos 1741 Rocket 4.0 21:24:11 10° SSW 21:29:28 88° ESE 21:34:49 10° NNE
Cosmos 1242 Rocket 3.9 21:29:30 14° ESE 21:30:15 15° E 21:31:54 10° NE
BlueWalker 3 3.4 21:31:50 17° SE 21:32:00 17° SE 21:34:27 10° E
Cosmos 1814 Rocket 4.1 21:27:31 10° NNW 21:32:52 89° ENE 21:37:16 15° SSE
MetOp-A 4.1 21:28:25 14° SSE 21:33:00 83° ENE 21:38:16 10° NNW
COSMOS 2455 4.4 21:35:30 13° SE 21:38:05 17° ESE 21:41:52 10° ENE
SL-16 R/B 3.6 21:33:15 10° NW 21:38:10 31° WSW 21:43:02 10° SSW
Landsat 5 3.3 21:36:12 10° NNE 21:40:13 78° ESE 21:44:11 11° S
USA 234 3.2 21:34:04 10° ENE 21:40:39 84° SSE 21:47:12 10° SW
Cosmos 2333 Rocket 2.6 21:36:46 10° NW 21:42:26 59° WSW 21:47:09 15° S
SL-14 R/B 4.0 21:40:27 10° SSW 21:44:08 49° WNW 21:47:50 10° N
Cosmos 1703 Rocket 4.3 21:43:34 18° SSE 21:46:27 39° E 21:50:37 10° NNE
Cosmos 1862 Rocket 3.8 21:42:59 10° SSW 21:47:21 73° W 21:51:49 10° N
Cosmos 1346 Rocket 3.8 21:44:12 10° NNW 21:47:50 40° W 21:51:09 12° SSW
Okean 3 3.5 21:46:08 11° SSW 21:50:02 82° WNW 21:54:14 10° N
DNEPR-1 R/B 4.4 21:43:21 10° NW 21:50:12 78° SW 21:54:25 18° SSE
Cosmos 1455 2.0 21:49:29 10° N 21:52:59 65° ENE 21:55:03 23° SSE
Cosmos 1408 4.2 21:55:12 14° ESE 21:55:51 14° E 21:57:34 10° NE
Cosmos 1833 4.2 21:51:33 10° SSW 21:57:11 90° ESE 22:02:51 10° NNE
EXPRESS MD2 1.8 21:55:36 10° W 21:58:00 87° N 21:59:45 14° E
CZ-4C R/B 3.4 21:58:28 15° SE 21:59:32 16° ESE 22:02:42 10° ENE
RESURS DK-1 4.5 21:56:49 10° WNW 21:59:33 18° WSW 22:02:17 10° SSW
H-2A R/B 3.6 21:58:41 16° SE 22:01:32 35° ENE 22:05:26 10° N
Cosmos 2237 Rocket 3.6 21:56:37 10° NNW 22:01:42 32° NE 22:06:43 10° ESE
Cosmos 1932 4.4 21:57:28 10° SSW 22:03:46 73° SE 22:10:02 10° NE
SJ 16-02 1.4 22:00:44 10° SSW 22:05:02 76° WNW 22:09:24 10° NNE
Cosmos 2322 3.8 21:59:45 10° NNW 22:05:28 79° ENE 22:09:35 19° SE
Terra 3.8 22:02:09 10° SW 22:05:43 21° W 22:09:17 10° NW
CZ-2C R/B 3.9 22:02:24 10° NNE 22:06:45 53° E 22:09:29 21° S
Aureole 3 4.3 22:07:02 10° SSW 22:10:58 53° WNW 22:15:55 10° N
Cosmos 2322 Rocket 3.9 22:15:57 10° NW 22:20:19 23° WSW 22:24:41 10° SSW
ARIANE 5 R/B 2.6 22:23:17 24° S 22:25:50 81° WSW 22:30:12 10° NNW
NOSS 5 (C) 4.1 22:23:30 10° NW 22:26:42 81° SW 22:27:59 33° SE
ATLAS 2AS CENTAUR R/B 3.6 22:21:19 10° NW 22:27:19 34° WSW 22:31:35 17° S
SL-4 R/B 1.9 22:23:56 10° WNW 22:27:55 90° N 22:31:55 11° ESE
Cosmos 2297 Rocket 3.4 22:27:17 20° SE 22:29:38 26° ESE 22:34:14 10° NE
Okean 1-7 3.8 22:30:05 13° SSW 22:33:44 48° WNW 22:37:57 10° N
USA 281 3.3 22:34:22 21° SSE 22:38:55 69° WSW 22:45:31 10° NNW
Cosmos 1745 Rocket 4.0 22:34:59 20° S 22:39:34 81° E 22:45:58 10° N
Cosmos 1908 Rocket 4.4 22:36:48 10° NNW 22:40:53 41° W 22:43:32 19° SSW
GP-B 3.4 22:36:42 10° N 22:41:04 63° W 22:43:51 22° SSW
Cosmos 1782 Rocket 3.6 22:39:33 10° NNW 22:43:53 72° W 22:46:09 27° S
Spot 4 3.8 22:41:21 25° SSE 22:44:07 79° ENE 22:48:57 10° NNW
ATLAS CENTAUR R/B 3.4 22:41:46 10° W 22:44:46 25° NW 22:47:52 10° NNE
Cosmos 2219 Rocket 3.2 22:40:05 10° NW 22:45:10 35° WSW 22:48:35 18° SSW
Nadezhda 1 Rocket 4.1 22:40:03 10° NNW 22:46:20 72° W 22:50:31 22° S
COSMOS 2428 2.8 22:41:52 10° NNW 22:47:31 66° WSW 22:50:54 25° S
NOSS 8 (F) 4.4 22:47:50 27° SSW 22:49:36 59° SE 22:52:42 10° NE
Meteor 2-5 Rocket 4.3 22:46:15 23° SSE 22:49:37 47° E 22:55:11 10° NNE
BREEZE-M DEB (TANK) 2.6 22:48:22 10° WNW 22:52:05 46° N 22:54:06 10° ENE
Cosmos 1953 4.0 22:50:39 10° NW 22:53:44 23° W 22:55:58 14° SW
Cosmos 2098 Rocket 4.3 22:48:04 10° N 22:54:38 62° ENE 22:58:50 22° SSE
Cosmos 2181 Rocket 4.5 22:49:22 10° N 22:55:25 51° ENE 22:59:29 20° SE
H-2A R/B 3.6 22:54:25 10° NE 22:57:41 21° E 22:59:07 18° ESE
PSLV R/B 4.2 22:55:22 10° N 22:59:20 61° WNW 23:01:43 22° SSW
Cosmos 1300 Rocket 3.8 22:56:48 10° NNW 23:01:02 57° W 23:03:09 27° SSW
Cosmos 1242 Rocket 3.8 23:00:40 16° WSW 23:02:04 24° WNW 23:04:24 10° NNW
Cosmos 304 Rocket 4.0 23:03:17 29° S 23:05:29 54° ESE 23:10:09 10° NNE
Cosmos 158 Rocket 4.4 23:02:23 10° NNW 23:07:31 51° WSW 23:10:13 26° S
Cosmos 2151 Rocket 4.2 23:04:56 10° N 23:09:12 47° ENE 23:11:26 25° SE
Cosmos 2360 Rocket 4.4 23:07:21 10° WNW 23:09:28 12° W 23:11:34 10° WSW
BlueWalker 3 1.7 23:06:00 10° WSW 23:09:40 72° SSE 23:13:24 10° ENE
Cosmos 405 Rocket 2.9 23:06:53 10° N 23:10:37 60° ENE 23:12:07 33° SE
Okean 2 Rocket 3.6 23:11:23 10° N 23:15:46 51° ENE 23:18:04 25° SE
ALOS 2 2.6 23:14:27 31° S 23:16:29 72° WSW 23:20:54 10° NNW
Cosmos 1674 Rocket 4.2 23:20:04 28° SE 23:21:52 43° E 23:25:59 10° NNE
Cosmos 1378 Rocket 3.9 23:20:47 30° SSE 23:22:36 51° E 23:26:52 10° NNE
COSMOS 2455 2.8 23:18:34 18° SSW 23:23:08 84° ESE 23:29:13 10° NE
USA 234 4.1 23:17:08 10° ENE 23:23:29 54° NNW 23:29:49 10° W
NOSS 0 Rocket 4.3 23:20:15 10° NW 23:26:17 52° WSW 23:29:40 26° S
CENTAUR R/B 3.4 23:24:42 23° SSE 23:26:59 30° ESE 23:32:42 10° NE
Cosmos 1408 3.6 23:27:13 22° WSW 23:28:19 29° WNW 23:31:00 10° N
Cosmos 773 Rocket 4.1 23:24:25 10° NNW 23:29:29 60° WSW 23:32:01 29° S
Cosmos 1703 3.6 23:34:51 29° SW 23:36:24 51° WNW 23:40:02 10° N
H-2A R/B 3.9 23:34:40 21° SW 23:36:30 28° W 23:40:13 10° NW
Cosmos 2221 Rocket 3.9 23:34:53 31° SSE 23:36:49 56° E 23:41:10 10° NNE
Cosmos 1892 2.8 23:37:30 38° SSE 23:38:29 53° E 23:41:55 10° NNE
Cosmos 1709 Rocket 4.5 23:34:37 19° SSW 23:39:10 57° WNW 23:45:27 10° N
SL-16 R/B 3.0 23:33:52 10° NNW 23:39:24 49° NE 23:44:44 11° SE
Cosmos 1174 4.0 23:34:37 10° NW 23:39:43 79° SW 23:41:41 31° SSE
Sich 1 Rocket 3.5 23:36:58 10° N 23:41:24 88° E 23:43:22 32° S
Nadezhda 3 Rocket 4.5 23:36:38 10° N 23:42:49 55° ENE 23:47:09 19° SSE
SJ 16-02 4.1 23:42:16 10° WNW 23:44:12 13° NW 23:46:08 10° NNW
Cosmos 2237 Rocket 2.4 23:40:32 10° NW 23:46:05 57° WSW 23:48:59 28° S
Cosmos 1777 Rocket 4.0 23:43:34 26° SSW 23:46:35 88° ESE 23:51:55 10° NNE
Cosmos 1503 Rocket 4.1 23:43:28 24° SSW 23:46:47 80° WNW 23:52:06 10° NNE
CZ-4C R/B 1.9 23:43:30 20° SW 23:46:49 84° NW 23:52:41 10° NE
Cosmos 1538 Rocket 4.5 23:41:55 10° NNW 23:47:03 56° ENE 23:50:58 17° SE
BREEZE-M DEB (TANK) 2.7 23:39:31 10° W 23:48:39 76° SSW 23:51:39 10° ESE
Cosmos 2227 Rocket 2.4 23:50:16 27° S 23:53:13 58° ESE 23:58:47 10° NE
GEOS 3 Rocket 4.1 23:49:45 10° NE 23:54:39 42° ESE 23:56:49 28° S
